[[{"header":{"parameterUnit":"m.s-1","parameterCategory":1,"la1":30.2991,"la2":30.254,"lo1":-89.0895,"lo2":-89.0444,"dy":0.0017,"dx":0.0017,"nx":28,"ny":28,"refTime":"2024-04-19T21:00:00:Z","depth":0,"parameterNumber":2,"parameterNumberName":"U-component_of_WINDS"},"data":[0,0,0,0,0,0,0,0,0,0,0,0,0,0,0,0,0,0,0,0,0,0,0,0,0,0,0,0,0,0,0,0,0,0,0,0,0,0,0,0,0,0,0,0,0,0,0,0,0,0,0,0,0,0,0,0,0,0,-2.3058,-2.3058,0,-2.3076,-2.3076,-2.3077,-2.3054,-2.3053,-2.3052,-2.3051,-2.307,-2.3071,-2.3072,0,0,0,0,0,0,0,0,0,0,0,0,0,-2.3002,-2.3003,-2.3058,-2.3058,-2.3058,-2.3076,-2.3077,-2.3077,-2.3054,-2.3053,-2.3052,-2.3051,-2.3069,-2.3071,-2.3072,0,0,0,0,0,0,0,0,0,0,0,0,0,-2.3024,-2.3003,-2.3058,-2.3049,-2.3048,-2.3076,-2.3077,-2.3077,-2.3054,-2.3053,-2.3051,-2.305,-2.3069,-2.3071,-2.3073,-2.311,0,0,-2.3078,-2.3079,0,0,0,0,0,0,0,0,-2.3022,-2.3026,-2.305,-2.305,-2.3049,-2.3061,-2.3063,-2.3088,-2.3054,-2.3052,-2.3051,-2.305,-2.3068,-2.307,-2.3076,-2.3111,-2.3112,-2.3079,-2.308,-2.3081,-2.3081,0,0,0,0,0,0,0,-2.3021,-2.3025,-2.3065,-2.305,-2.305,-2.3044,-2.3045,-2.3068,-2.3067,-2.3052,-2.305,-2.3053,-2.3067,-2.3074,-2.3076,-2.3112,-2.3079,-2.308,-2.3081,-2.3082,-2.3177,-2.3178,0,0,0,0,0,0,-2.3021,-2.3024,-2.3065,-2.3066,-2.3032,-2.3046,-2.3048,-2.3059,-2.3066,-2.3066,-2.3054,-2.3052,-2.3072,-2.3074,-2.3077,-2.312,-2.3081,-2.3082,-2.3084,-2.3175,-2.3177,-2.3178,0,0,0,0,0,0,-2.3019,-2.3024,-2.3064,-2.3044,-2.3049,-2.3048,-2.3061,-2.306,-2.3067,-2.3068,-2.3068,-2.3061,-2.3071,-2.3074,-2.3102,-2.3121,-2.3083,-2.3085,-2.3174,-2.3176,-2.3178,-2.3208,0,0,0,0,0,0,-2.3018,-2.3024,-2.3039,-2.3045,-2.305,-2.3089,-2.3062,-2.3061,-2.307,-2.3067,-2.3075,-2.3075,-2.307,-2.3099,-2.3103,-2.3123,-2.3087,-2.3172,-2.3175,-2.3177,-2.3205,-2.3211,-2.3215,0,0,0,0,0,-2.3016,-2.3047,-2.304,-2.3045,-2.3068,-2.309,-2.3093,-2.3087,-2.3072,-2.3086,-2.3087,-2.3074,-2.3118,-2.3102,-2.3107,-2.3127,-2.3171,-2.3174,-2.3177,-2.3203,-2.321,-2.3215,0,0,0,0,0,0,-2.3043,-2.3048,-2.304,-2.3073,-2.3081,-2.3086,-2.3104,-2.3094,-2.3107,-2.3104,-2.3096,-2.3097,-2.3126,-2.3129,-2.3112,-2.3163,-2.3142,-2.3146,-2.316,-2.3166,-2.3171,-2.317,-2.3088,0,0,0,0,0,-2.3053,-2.3071,-2.3073,-2.3103,-2.3107,-2.3105,-2.3114,-2.3109,-2.3117,-2.312,-2.3123,-2.3131,-2.3146,-2.3156,-2.317,-2.3205,-2.3206,-2.3222,-2.3227,-2.3231,-2.3235,-2.3252,-2.3259,-2.3188,-2.3188,-2.3188,0,0,-2.3074,-2.3078,-2.309,-2.3108,-2.3114,-2.3132,-2.3108,-2.3128,-2.3141,-2.3123,-2.3149,-2.3151,-2.3159,-2.319,-2.3204,-2.3194,-2.3254,-2.3235,-2.3238,-2.3239,-2.3256,-2.3263,-2.3269,-2.319,-2.319,-2.319,0,0,-2.3121,-2.3126,-2.3151,-2.3157,-2.3165,-2.3163,-2.3169,-2.3175,-2.3176,-2.3201,-2.3188,-2.3203,-2.323,-2.3236,-2.3243,-2.329,-2.3279,-2.3295,-2.3322,-2.3339,-2.3345,-2.3349,-2.3366,-2.3372,-2.3299,-2.3299,-2.3299,0,-2.3146,-2.3172,-2.3165,-2.3185,-2.3193,-2.3178,-2.3202,-2.3208,-2.3221,-2.3226,-2.3215,-2.3247,-2.3252,-2.3283,-2.3295,-2.3301,-2.3307,-2.3294,-2.3344,-2.3349,-2.3354,-2.3369,-2.3375,-2.3301,-2.33,-2.33,-2.33,0,-2.3202,-2.322,-2.3239,-2.3251,-2.3261,-2.3284,-2.3279,-2.329,-2.3284,-2.3283,-2.3308,-2.3313,-2.3328,-2.3335,-2.3329,-2.3365,-2.3358,-2.3346,-2.3324,-2.3362,-2.3376,-2.3382,-2.3303,-2.3303,-2.3302,-2.3302,0,0,-2.3267,-2.3274,-2.3281,-2.3286,-2.3294,-2.3307,-2.3329,-2.3343,-2.3352,-2.3361,-2.3378,-2.34,-2.3388,-2.3396,-2.339,-2.3405,-2.3442,-2.339,-2.339,-2.3399,-2.3481,-2.3491,-2.3498,-2.3434,-2.3435,-2.3436,-2.348,0,-2.3314,-2.335,-2.3344,-2.3379,-2.3396,-2.338,-2.3398,-2.3405,-2.3404,-2.3418,-2.3417,-2.3433,-2.3416,-2.342,-2.3434,-2.3434,-2.3458,-2.3431,-2.345,-2.345,-2.3448,-2.3505,-2.3515,-2.3557,-2.3486,-2.3487,-2.3488,0,-2.3373,-2.3383,-2.3421,-2.3424,-2.3431,-2.3448,-2.3459,-2.3472,-2.3479,-2.3477,-2.3485,-2.3476,-2.3497,-2.3475,-2.3503,-2.3484,-2.3491,-2.3492,-2.3494,-2.3495,-2.3471,-2.3508,-2.357,-2.3576,-2.3496,-2.3496,-2.3495,0,-2.3416,-2.344,-2.3465,-2.3469,-2.3474,-2.3486,-2.3489,-2.3494,-2.3502,-2.3512,-2.3517,-2.353,-2.3537,-2.3546,-2.354,-2.3525,-2.3569,-2.3547,-2.3568,-2.3568,-2.3577,-2.3577,-2.3641,-2.3583,-2.3583,-2.3583,-2.3582,0,-2.3468,-2.3492,-2.3484,-2.3499,-2.3524,-2.3516,-2.3541,-2.3542,-2.3546,-2.3561,-2.3548,-2.3563,-2.3554,-2.3568,-2.3564,-2.3587,-2.359,-2.3589,-2.3587,-2.359,-2.359,-2.3594,-2.3591,-2.3584,-2.3584,-2.3583,-2.3583,0,-2.3521,-2.3517,-2.3543,-2.3545,-2.3546,-2.3565,-2.3566,-2.358,-2.3578,-2.3597,-2.3601,-2.3598,-2.3613,-2.3608,-2.3624,-2.3621,-2.365,-2.3646,-2.3648,-2.3647,-2.3668,-2.3665,-2.3737,-2.3745,-2.3682,-2.3682,-2.3683,0,-2.3555,-2.3572,-2.3576,-2.3585,-2.3588,-2.3603,-2.3611,-2.3603,-2.3612,-2.362,-2.3632,-2.3646,-2.3657,-2.3681,-2.368,-2.3692,-2.3687,-2.3711,-2.3689,-2.369,-2.3687,-2.3685,-2.3687,-2.3716,-2.3716,-2.3717,-2.3717,0,-2.3614,-2.3611,-2.3623,-2.3634,-2.3644,-2.3653,-2.366,-2.3668,-2.366,-2.3671,-2.3686,-2.3694,-2.371,-2.3723,-2.3734,-2.3736,-2.3725,-2.3724,-2.373,-2.3732,-2.3733,-2.3732,-2.366,-2.3723,-2.3722,-2.3722,-2.3722,-2.3721,-2.3658,-2.3672,-2.3677,-2.369,-2.3695,-2.3702,-2.3714,-2.3713,-2.3726,-2.3738,-2.3732,-2.3749,-2.3754,-2.3767,-2.3771,-2.3784,-2.3774,-2.3782,-2.3784,-2.3786,-2.3788,-2.3731,-2.3786,-2.3785,-2.3785,-2.3785,-2.3785,0,-2.3717,-2.3718,-2.3731,-2.3741,-2.3751,-2.374,-2.3747,-2.3756,-2.3771,-2.3777,-2.3787,-2.3803,-2.3816,-2.3816,-2.3827,-2.3837,-2.3833,-2.3841,-2.384,-2.384,-2.3796,-2.379,-2.3844,-2.3844,-2.3844,-2.3844,-2.3844,-2.3844,-2.3748,-2.3771,-2.3768,-2.3793,-2.3794,-2.3811,-2.3815,-2.3821,-2.3825,-2.3844,-2.3854,-2.3854,-2.3857,-2.3868,-2.3879,-2.3878,-2.3883,-2.3893,-2.389,-2.3849,-2.3843,-2.3838,-2.3832,-2.3894,-2.3894,-2.3933,-2.3933,-2.3934]},{"header":{"parameterUnit":"m.s-1","parameterCategory":1,"la1":30.2991,"la2":30.254,"lo1":-89.0895,"lo2":-89.0444,"dy":0.0017,"dx":0.0017,"nx":28,"ny":28,"refTime":"2024-04-19T21:00:00:Z","depth":0,"parameterNumber":3,"parameterNumberName":"V-component_of_WINDS"},"data":[0,0,0,0,0,0,0,0,0,0,0,0,0,0,0,0,0,0,0,0,0,0,0,0,0,0,0,0,0,0,0,0,0,0,0,0,0,0,0,0,0,0,0,0,0,0,0,0,0,0,0,0,0,0,0,0,0,0,-6.9509,-6.951,0,-6.9573,-6.9573,-6.9574,-6.9502,-6.9499,-6.9496,-6.9494,-6.9553,-6.9557,-6.9561,0,0,0,0,0,0,0,0,0,0,0,0,0,-6.9319,-6.9323,-6.9509,-6.951,-6.9511,-6.9572,-6.9573,-6.9574,-6.9502,-6.9499,-6.9495,-6.9492,-6.9551,-6.9556,-6.9561,0,0,0,0,0,0,0,0,0,0,0,0,0,-6.9394,-6.9325,-6.9509,-6.9482,-6.9481,-6.9572,-6.9573,-6.9574,-6.9503,-6.9499,-6.9495,-6.9491,-6.955,-6.9556,-6.9562,-6.9681,0,0,-6.9581,-6.9583,0,0,0,0,0,0,0,0,-6.939,-6.9401,-6.9485,-6.9484,-6.9483,-6.9525,-6.9528,-6.961,-6.9504,-6.9494,-6.9493,-6.9489,-6.9546,-6.9553,-6.9573,-6.9684,-6.9686,-6.9581,-6.9585,-6.9588,-6.9589,0,0,0,0,0,0,0,-6.9385,-6.9398,-6.9534,-6.9487,-6.9485,-6.9465,-6.9471,-6.9543,-6.9542,-6.9495,-6.949,-6.9498,-6.9545,-6.9567,-6.9574,-6.9687,-6.9581,-6.9586,-6.959,-6.9593,-6.9897,-6.9902,0,0,0,0,0,0,-6.9384,-6.9394,-6.9532,-6.9536,-6.9426,-6.9472,-6.9479,-6.9515,-6.9541,-6.9541,-6.9502,-6.9495,-6.9559,-6.9567,-6.9576,-6.9716,-6.9587,-6.9593,-6.9597,-6.9893,-6.9898,-6.9903,0,0,0,0,0,0,-6.938,-6.9397,-6.9529,-6.9464,-6.9479,-6.948,-6.9521,-6.9519,-6.9541,-6.9547,-6.9545,-6.9526,-6.9556,-6.9567,-6.9656,-6.9717,-6.9596,-6.9602,-6.9888,-6.9895,-6.9901,-6.9999,0,0,0,0,0,0,-6.9375,-6.9396,-6.9443,-6.9465,-6.9483,-6.961,-6.9525,-6.9523,-6.9553,-6.9544,-6.9569,-6.9569,-6.9554,-6.9647,-6.9662,-6.9724,-6.9606,-6.9882,-6.9891,-6.9899,-6.999,-7.0008,-7.0024,0,0,0,0,0,-6.9368,-6.9467,-6.9445,-6.9462,-6.9542,-6.9614,-6.9624,-6.9606,-6.9558,-6.9604,-6.9607,-6.9568,-6.9709,-6.9657,-6.9673,-6.9737,-6.9878,-6.9888,-6.9898,-6.9983,-7.0005,-7.0023,0,0,0,0,0,0,-6.9449,-6.9469,-6.9446,-6.9555,-6.9584,-6.9602,-6.9659,-6.963,-6.9671,-6.9661,-6.9636,-6.9642,-6.9736,-6.9745,-6.9687,-6.9854,-6.9785,-6.9799,-6.9844,-6.9865,-6.9881,-6.9877,-6.9612,0,0,0,0,0,-6.948,-6.9539,-6.9552,-6.9647,-6.9663,-6.9659,-6.969,-6.9674,-6.9702,-6.9713,-6.9722,-6.9749,-6.9799,-6.9833,-6.9879,-6.9991,-6.9995,-7.0044,-7.0061,-7.0074,-7.0086,-7.0145,-7.0167,-6.9936,-6.9936,-6.9935,0,0,-6.9543,-6.9562,-6.96,-6.9664,-6.9684,-6.9744,-6.9669,-6.9736,-6.9779,-6.9722,-6.9807,-6.9815,-6.9843,-6.9944,-6.9988,-6.9954,-7.0151,-7.0087,-7.0098,-7.0102,-7.0157,-7.0179,-7.0199,-6.9942,-6.9941,-6.994,0,0,-6.9689,-6.971,-6.9791,-6.9814,-6.9846,-6.9843,-6.9862,-6.9885,-6.9889,-6.9974,-6.9932,-6.9982,-7.0069,-7.0091,-7.0113,-7.0268,-7.0233,-7.0284,-7.037,-7.0428,-7.0446,-7.0462,-7.0516,-7.0536,-7.0295,-7.0296,-7.0296,0,-6.9764,-6.9854,-6.9836,-6.9906,-6.9934,-6.9888,-6.9968,-6.999,-7.0035,-7.0055,-7.0017,-7.0125,-7.014,-7.0245,-7.0283,-7.0303,-7.0323,-7.028,-7.0446,-7.0461,-7.0476,-7.0527,-7.0548,-7.0302,-7.0301,-7.03,-7.03,0,-6.9943,-7.0007,-7.0068,-7.0115,-7.015,-7.0225,-7.0216,-7.0254,-7.0235,-7.0235,-7.0321,-7.0339,-7.0387,-7.0411,-7.0393,-7.0513,-7.0491,-7.045,-7.038,-7.0504,-7.0552,-7.0572,-7.031,-7.0308,-7.0306,-7.0305,0,0,-7.0142,-7.0179,-7.0201,-7.0222,-7.0254,-7.0302,-7.0373,-7.0423,-7.0456,-7.0488,-7.0546,-7.0622,-7.0583,-7.0609,-7.0592,-7.0643,-7.0764,-7.0595,-7.0595,-7.0625,-7.0896,-7.0927,-7.095,-7.0741,-7.0744,-7.0747,-7.0894,0,-7.0288,-7.0416,-7.0401,-7.0522,-7.0579,-7.0535,-7.0597,-7.0623,-7.0625,-7.0672,-7.0673,-7.0727,-7.0673,-7.0688,-7.0736,-7.0739,-7.0817,-7.0728,-7.0793,-7.0796,-7.0787,-7.0975,-7.1008,-7.1145,-7.0912,-7.0915,-7.0918,0,-7.0476,-7.0518,-7.0645,-7.0668,-7.0691,-7.0748,-7.0792,-7.0838,-7.0866,-7.0863,-7.0892,-7.0867,-7.0936,-7.0867,-7.0962,-7.0901,-7.0927,-7.0932,-7.0937,-7.0942,-7.0864,-7.0984,-7.1188,-7.1209,-7.0947,-7.0945,-7.0943,0,-7.0607,-7.0695,-7.0782,-7.0801,-7.083,-7.0871,-7.0885,-7.0908,-7.0939,-7.0977,-7.0996,-7.1041,-7.1065,-7.11,-7.1086,-7.1036,-7.1183,-7.1112,-7.1182,-7.1182,-7.1214,-7.1212,-7.1425,-7.1232,-7.1232,-7.1232,-7.1231,0,-7.0772,-7.0851,-7.0841,-7.0895,-7.0981,-7.0963,-7.1049,-7.1056,-7.1078,-7.1131,-7.1095,-7.1144,-7.1124,-7.1172,-7.1161,-7.1241,-7.1252,-7.1251,-7.1247,-7.1254,-7.1254,-7.127,-7.126,-7.1237,-7.1236,-7.1235,-7.1234,0,-7.0933,-7.093,-7.1022,-7.1043,-7.105,-7.1113,-7.1129,-7.1179,-7.1178,-7.1245,-7.1259,-7.1258,-7.1312,-7.1303,-7.1362,-7.1355,-7.1455,-7.1439,-7.1446,-7.1442,-7.1512,-7.1505,-7.1741,-7.1771,-7.156,-7.1562,-7.1564,0,-7.1038,-7.1098,-7.1126,-7.116,-7.1177,-7.1232,-7.1264,-7.1247,-7.1281,-7.1317,-7.1361,-7.1413,-7.1454,-7.1542,-7.1545,-7.159,-7.1575,-7.1655,-7.1581,-7.1586,-7.1575,-7.1572,-7.1577,-7.1669,-7.1671,-7.1673,-7.1675,0,-7.1224,-7.122,-7.1268,-7.1316,-7.1355,-7.1391,-7.1423,-7.1453,-7.1439,-7.1478,-7.1535,-7.1567,-7.1628,-7.1679,-7.1721,-7.1733,-7.1702,-7.1698,-7.1716,-7.1724,-7.1725,-7.1724,-7.1485,-7.1693,-7.1691,-7.1689,-7.1689,-7.1688,-7.136,-7.1411,-7.1439,-7.1494,-7.1517,-7.1548,-7.1595,-7.1601,-7.1649,-7.1699,-7.1686,-7.1749,-7.1774,-7.1827,-7.1844,-7.1892,-7.1862,-7.1889,-7.1895,-7.1902,-7.191,-7.1718,-7.1899,-7.1899,-7.1898,-7.1898,-7.1898,0,-7.1544,-7.156,-7.161,-7.1658,-7.17,-7.1669,-7.1703,-7.174,-7.1797,-7.1824,-7.1865,-7.1929,-7.1978,-7.1986,-7.2032,-7.2069,-7.2055,-7.2081,-7.2078,-7.2081,-7.1935,-7.1914,-7.2092,-7.2092,-7.2091,-7.2091,-7.2091,-7.2091,-7.1644,-7.1729,-7.1728,-7.1824,-7.1838,-7.1902,-7.1924,-7.1952,-7.1973,-7.2047,-7.2089,-7.2094,-7.2112,-7.2159,-7.2203,-7.2203,-7.2221,-7.2253,-7.2248,-7.2111,-7.2091,-7.2073,-7.2053,-7.2257,-7.2258,-7.239,-7.2391,-7.2392]}]]